Home   Weather   Manchester   Past weeks
Flag for United Kingdom

Past Weather in Manchester, England, United Kingdom — Yesterday and Last 2 Weeks

Now
64 °F

Partly sunny.


Feels Like: 64 °F
Forecast: 69 / 57 °F
Wind: 7 mph from Southwest

Location: Manchester Airport

Current Time: Jul 18, 2019 at 4:29:15 pm

Latest Report: Jul 18, 2019 at 3:50 pm


Visibility: N/A

Pressure: 29.80 "Hg

Humidity: 68%

Dew Point: 54 °F

Location of ManchesterLocation

Past Weather in Manchester — Graph

°F

Manchester Temperature Yesterday

Maximum temperature yesterday: 72 °F (at 3:20 pm)
Minimum temperature yesterday: 54 °F (at 3:20 am)
Average temperature yesterday: 62 °F

High & Low Weather Summary for the Past Weeks

 TemperatureHumidityPressure
High73 °F (Jul 15, 4:20 pm)100% (Jul 6, 8:50 am)30.36 "Hg (Jul 6, 8:50 am)
Low48 °F (Jul 7, 3:50 am)43% (Jul 3, 2:20 pm)29.74 "Hg (Jul 18, 2:20 am)
Average62 °F78%30.08 "Hg
* Reported Jul 3 2:20 pm — Jul 18 2:50 pm, Manchester. Weather by CustomWeather, © 2019

Note: Actual official high and low records may vary slightly from our data, if they occured in-between our weather recording intervals... More about our weather records

Advertising

Manchester Weather History for the Previous 24 Hours

Scroll right to see more
 ConditionsComfort  
Time TempWeatherWind HumidityBarometerVisibility
2:50 pm
Thu, Jul 18
64 °FPartly sunny.10 mph64%29.80 "HgN/A
2:20 pm64 °FMild.9 mph64%29.80 "HgN/A
1:50 pm64 °FBroken clouds.10 mph68%29.80 "HgN/A
12:50 pm64 °FPartly sunny.10 mph68%29.80 "HgN/A
12:20 pm63 °FScattered clouds.10 mph68%29.80 "HgN/A
11:50 am64 °FScattered clouds.12 mph68%29.80 "HgN/A
11:20 am64 °FScattered clouds.13 mph68%29.80 "HgN/A
10:50 am64 °FBroken clouds.13 mph73%29.80 "HgN/A
10:20 am61 °FScattered clouds.12 mph83%29.80 "HgN/A
9:50 am61 °FScattered clouds.12 mph83%29.77 "HgN/A
9:20 am61 °FBroken clouds.9 mph83%29.77 "HgN/A
8:50 am61 °FBroken clouds.8 mph83%29.77 "HgN/A
8:20 am59 °FScattered clouds.6 mph88%29.77 "HgN/A
7:50 am57 °FBroken clouds.5 mph94%29.77 "HgN/A
7:20 am57 °FPartly sunny.7 mph94%29.77 "HgN/A
6:50 am57 °FLight rain. Mostly cloudy.6 mph100%29.77 "HgN/A
6:20 am57 °FBroken clouds.3 mph100%29.77 "HgN/A
5:50 am57 °FMostly cloudy.2 mph100%29.77 "HgN/A
5:20 am57 °FMostly cloudy.2 mph94%29.74 "HgN/A
4:50 am57 °FPartly cloudy.2 mph94%29.74 "HgN/A
4:20 am57 °FLight rain. Mostly cloudy.3 mph94%29.74 "Hg6 mi
3:50 am57 °FLight rain. Mostly cloudy.7 mph94%29.74 "HgN/A
2:50 am61 °FLight rain. Passing clouds.7 mph88%29.74 "Hg4 mi
2:20 am61 °FMostly cloudy.7 mph88%29.74 "HgN/A
1:50 am61 °FMostly cloudy.6 mph88%29.77 "HgN/A
1:20 am61 °FOvercast.6 mph88%29.77 "HgN/A
12:50 am59 °FMostly cloudy.6 mph94%29.77 "HgN/A
12:20 am59 °FPassing clouds.5 mph94%29.77 "HgN/A
11:50 pm
Wed, Jul 17
61 °FLight rain. Passing clouds.6 mph88%29.80 "HgN/A
11:20 pm61 °FLight rain. Passing clouds.5 mph88%29.80 "HgN/A
10:50 pm61 °FOvercast.5 mph88%29.80 "HgN/A
10:20 pm61 °FLight rain. Overcast.3 mph88%29.80 "HgN/A
9:50 pm61 °FPassing clouds.3 mph88%29.83 "HgN/A
9:20 pm59 °FOvercast.2 mph94%29.83 "HgN/A
8:50 pm61 °FLight rain. Partly sunny.3 mph88%29.83 "HgN/A
8:20 pm61 °FMostly cloudy.3 mph88%29.83 "HgN/A
7:50 pm59 °FLight rain. Passing clouds.6 mph94%29.83 "HgN/A
7:20 pm61 °FLight rain. Partly sunny.3 mph94%29.86 "HgN/A
6:50 pm61 °FLight rain. Cloudy.3 mph94%29.86 "HgN/A
6:20 pm61 °FScattered showers. Broken clouds.3 mph88%29.86 "HgN/A
5:50 pm61 °FLight rain. Broken clouds.6 mph83%29.86 "HgN/A
5:20 pm63 °FLight rain. Partly sunny.12 mph83%29.86 "Hg5 mi
4:50 pm66 °FLight rain. Cloudy.13 mph68%29.86 "HgN/A
4:20 pm70 °FPassing clouds.10 mph57%29.86 "HgN/A
Weather by CustomWeather, © 2019

See weather overview